| time (UTC) | temp F | wind direction | speed knots | gust knots | rain 1hr in | rain 24hr in | rain mn in | humidity % | barometer mb |
| 20260503005859 | 52 | 63 | 0.9 | 3.5 | 0.07 | 0.37 | 0.16 | 95 | 1009.2 |
| 20260503004400 | 52 | 33 | 1.7 | 5.2 | 0.09 | 0.36 | 0.15 | 95 | 1009.4 |
| 20260503002858 | 52 | 10 | 1.7 | 4.3 | 0.09 | 0.35 | 0.13 | 95 | 1009.5 |
| 20260503001358 | 52 | 13 | 0.9 | 3.5 | 0.08 | 0.31 | 0.11 | 95 | 1009.6 |
| 20260502235859 | 52 | 51 | 0.0 | 1.7 | 0.09 | 0.30 | 0.09 | 95 | 1009.7 |
| 20260502234358 | 52 | 55 | 0.9 | 2.6 | 0.10 | 0.28 | 0.06 | 95 | 1009.8 |
| 20260502232855 | 52 | 50 | 0.0 | 1.7 | 0.12 | 0.26 | 0.05 | 95 | 1009.8 |
| 20260502232744 | 53 | 57 | 0.9 | 2.6 | 0.11 | 0.24 | 0.02 | 95 | 1009.9 |
| 20260502231235 | 53 | 70 | 0.9 | 2.6 | 0.09 | 0.20 | 0.20 | 94 | 1010.0 |
| 20260502224351 | 53 | 77 | 0.9 | 2.6 | 0.08 | 0.17 | 0.17 | 94 | 1010.0 |
| 20260502222850 | 53 | 81 | 0.9 | 2.6 | 0.06 | 0.14 | 0.14 | 94 | 1010.0 |
| 20260502221348 | 53 | 54 | 0.0 | 1.7 | 0.07 | 0.13 | 0.13 | 94 | 1010.0 |
| 20260502220541 | 54 | 60 | 0.0 | 0.9 | 0.06 | 0.11 | 0.11 | 94 | 1010.0 |
| 20260502214345 | 54 | 103 | 0.0 | 0.9 | 0.06 | 0.09 | 0.09 | 93 | 1010.1 |
| 20260502213539 | 54 | 111 | 0.0 | 0.9 | 0.05 | 0.08 | 0.08 | 93 | 1010.3 |
| 20260502211345 | 54 | 112 | 0.0 | 0.9 | 0.03 | 0.06 | 0.06 | 93 | 1010.4 |
| 20260502210548 | 54 | 112 | 0.0 | 0.9 | 0.03 | 0.05 | 0.05 | 92 | 1010.6 |
| 20260502204340 | 54 | 112 | 0.0 | 0.9 | 0.02 | 0.04 | 0.04 | 92 | 1010.6 |
| 20260502204225 | 54 | 112 | 0.0 | 0.9 | 0.02 | 0.03 | 0.03 | 92 | 1010.7 |
| 20260502201340 | 54 | 112 | 0.0 | 0.9 | 0.02 | 0.02 | 0.02 | 91 | 1010.6 |
| 20260502195840 | 54 | 79 | 0.0 | 0.9 | 0.02 | 0.02 | 0.02 | 91 | 1010.7 |
| 20260502194339 | 55 | 74 | 0.0 | 1.7 | 0.02 | 0.02 | 0.02 | 90 | 1010.8 |
| 20260502192836 | 55 | 66 | 0.9 | 2.6 | 0.01 | 0.01 | 0.01 | 89 | 1010.6 |
| 20260502191338 | 55 | 56 | 0.9 | 2.6 | 0.01 | 0.01 | 0.01 | 88 | 1010.7 |
| 20260502185836 | 55 | 71 | 0.9 | 2.6 | 0.00 | 0.00 | 0.00 | 87 | 1010.8 |
| 20260502184336 | 55 | 66 | 1.7 | 3.5 | 0.00 | 0.00 | 0.00 | 86 | 1010.7 |
| 20260502182836 | 55 | 70 | 1.7 | 3.5 | 0.00 | 0.00 | 0.00 | 85 | 1010.7 |
| 20260502182034 | 55 | 66 | 1.7 | 5.2 | 0.00 | 0.00 | 0.00 | 83 | 1010.8 |
| 20260502181229 | 56 | 68 | 1.7 | 5.2 | 0.00 | 0.00 | 0.00 | 81 | 1010.9 |
| 20260502164331 | 56 | 54 | 2.6 | 8.7 | 0.00 | 0.01 | 0.00 | 77 | 1011.2 |
| 20260502162835 | 57 | 38 | 2.6 | 8.7 | 0.00 | 0.02 | 0.00 | 76 | 1011.3 |
| 20260502161334 | 57 | 37 | 3.5 | 9.6 | 0.00 | 0.02 | 0.00 | 74 | 1011.4 |
| 20260502160526 | 58 | 40 | 3.5 | 9.6 | 0.00 | 0.02 | 0.00 | 73 | 1011.6 |
| 20260502151324 | 58 | 28 | 4.3 | 10.4 | 0.00 | 0.05 | 0.00 | 73 | 1012.0 |
| 20260502122807 | 61 | 18 | 2.6 | 6.1 | 0.00 | 0.06 | 0.00 | 68 | 1013.8 |
| 20260502121913 | 60 | 294 | 1.7 | 6.1 | 0.00 | 0.07 | 0.00 | 68 | 1014.1 |
| 20260502121311 | 62 | 266 | 1.7 | 6.1 | 0.00 | 0.06 | 0.00 | 67 | 1014.1 |
| 20260502115005 | 59 | 307 | 2.6 | 4.3 | 0.00 | 0.07 | 0.00 | 72 | 1014.3 |
| 20260502112807 | 60 | 262 | 2.6 | 6.1 | 0.00 | 0.07 | 0.00 | 71 | 1014.5 |
| 20260502111308 | 60 | 306 | 1.7 | 6.1 | 0.00 | 0.07 | 0.00 | 71 | 1014.5 |
| 20260502105802 | 59 | 145 | 1.7 | 6.1 | 0.00 | 0.07 | 0.00 | 72 | 1014.6 |
| 20260502104301 | 58 | 113 | 2.6 | 5.2 | 0.00 | 0.07 | 0.00 | 73 | 1014.3 |
| 20260502102759 | 58 | 97 | 1.7 | 4.3 | 0.00 | 0.07 | 0.00 | 75 | 1014.5 |
| 20260502102005 | 57 | 110 | 1.7 | 4.3 | 0.00 | 0.07 | 0.00 | 76 | 1014.8 |
| 20260502071257 | 54 | 179 | 1.7 | 4.3 | 0.00 | 0.07 | 0.00 | 86 | 1015.6 |
| 20260502065757 | 53 | 126 | 1.7 | 3.5 | 0.00 | 0.07 | 0.00 | 89 | 1015.5 |
| 20260502064257 | 51 | 114 | 1.7 | 3.5 | 0.00 | 0.07 | 0.00 | 91 | 1015.3 |
| 20260502062757 | 50 | 112 | 1.7 | 4.3 | 0.00 | 0.07 | 0.00 | 92 | 1015.4 |
| 20260502061951 | 49 | 94 | 0.9 | 1.7 | 0.00 | 0.07 | 0.00 | 93 | 1015.5 |
| 20260502055757 | 48 | 96 | 0.9 | 0.9 | 0.00 | 0.07 | 0.00 | 94 | 1015.4 |
| 20260502054255 | 47 | 86 | 0.9 | 1.7 | 0.00 | 0.07 | 0.00 | 94 | 1015.4 |
| 20260502052755 | 47 | 84 | 0.9 | 1.7 | 0.00 | 0.07 | 0.00 | 93 | 1015.4 |
| 20260502051254 | 47 | 91 | 0.9 | 1.7 | 0.00 | 0.07 | 0.00 | 93 | 1015.4 |
| 20260502045752 | 46 | 85 | 0.9 | 0.9 | 0.00 | 0.07 | 0.00 | 93 | 1015.3 |
| 20260502044253 | 46 | 79 | 1.7 | 1.7 | 0.00 | 0.07 | 0.00 | 93 | 1015.4 |
| 20260502042750 | 47 | 85 | 0.9 | 1.7 | 0.00 | 0.07 | 0.00 | 92 | 1015.4 |
| 20260502041945 | 47 | 108 | 0.0 | 0.9 | 0.00 | 0.07 | 0.00 | 92 | 1015.4 |
| 20260502035745 | 47 | 321 | 0.0 | 0.9 | 0.00 | 0.07 | 0.00 | 92 | 1015.5 |
| 20260502034244 | 48 | 103 | 0.9 | 1.7 | 0.00 | 0.07 | 0.00 | 91 | 1015.5 |
| 20260502032742 | 49 | 90 | 0.0 | 0.9 | 0.00 | 0.07 | 0.00 | 89 | 1015.6 |
| 20260502031239 | 50 | 267 | 0.0 | 2.6 | 0.00 | 0.07 | 0.00 | 89 | 1015.7 |
| 20260502025738 | 50 | 281 | 0.9 | 2.6 | 0.00 | 0.07 | 0.00 | 89 | 1015.7 |
| 20260502024237 | 50 | 245 | 1.7 | 4.3 | 0.00 | 0.07 | 0.00 | 89 | 1015.8 |
| 20260502022734 | 50 | 114 | 0.0 | 3.5 | 0.00 | 0.07 | 0.00 | 89 | 1015.8 |
| 20260502021234 | 50 | 267 | 0.0 | 3.5 | 0.00 | 0.07 | 0.00 | 89 | 1015.9 |
| 20260502020428 | 50 | 218 | 0.9 | 2.6 | 0.00 | 0.07 | 0.00 | 88 | 1016.0 |
| 20260502014230 | 51 | 227 | 1.7 | 6.1 | 0.00 | 0.07 | 0.00 | 89 | 1016.2 |
| 20260502012728 | 50 | 252 | 0.9 | 3.5 | 0.00 | 0.07 | 0.00 | 89 | 1016.3 |
| 20260502011933 | 51 | 233 | 2.6 | 6.1 | 0.00 | 0.07 | 0.00 | 89 | 1016.5 |